User: anonymous   Login
Location: Unspecified
(0.0000°N, 0.0000°E)
Time: 18:26:49
(UTC+00:00)
Language:

SES-10 - Orbit

View from above orbital plane
View from above orbital plane
View from above satellite
View from above satellite

Ground track
Ground track

The orbit data is extracted from the following two-line orbital elements,

1 42432U 17017A   19051.56693412 -.00000294  00000-0  00000+0 0  9998
2 42432   0.0183  93.6207 0002941 244.0222 309.7257  1.00269326  6950
Epoch (UTC): 20 February 2019 13:36:23
Eccentricity: 0.0002941
inclination: 0.0183°
perigee height: 35774 km
apogee height: 35799 km
right ascension of ascending node: 93.6207°
argument of perigee: 244.0222°
revolutions per day: 1.00269326
mean anomaly at epoch: 309.7257°
orbit number at epoch: 695

The dashed part of the orbit path shows where the satellite is in the earth's shadow,  

DLR